Location: Nebraska Star Party
(42.6000°N, 100.8833°W)
Time: 09:01:29
(UTC-06:00)

Amateur Radio Satellites - All Passes

Search period start: 03 March 2015 08:31
Search period end: 04 March 2015 08:31
Location: Nebraska Star Party, 42.6000°N, 100.8833°W

Satellite Date Start Highest point End Downlink Frequencies (MHz)
Time Altitude Azimuth
DOVE 4 03 Mar 08:40:21 08:42:03 12° 87° (E) 08:43:57 437.250
HO-68 03 Mar 08:52:50 08:59:16 35° 96° (E) 09:05:47 435.675
AAUSAT CUBESAT 2 03 Mar 08:53:19 08:55:40 15° 90° (E) 08:58:11 437.432
COMPASS 1 03 Mar 08:55:56 08:58:50 18° 91° (E) 09:01:52 437.405
UNISAT 6 03 Mar 09:08:53 09:10:24 12° 63° (ENE) 09:12:08 437.425
SEEDS 03 Mar 09:23:22 09:27:25 44° 98° (E) 09:31:30 437.485
CANX-2 03 Mar 09:27:28 09:31:43 66° 101° (E) 09:35:57 2200.000
TIGRISAT 03 Mar 09:31:53 09:35:01 20° 67° (ENE) 09:38:14 435.000
ZACube-1 03 Mar 09:38:51 09:39:28 10° 87° (E) 09:40:21 437.345
DUCHIFAT 1 03 Mar 09:39:12 09:41:13 14° 64° (ENE) 09:43:26 145.980
ISS 03 Mar 09:42:10 09:45:23 84° 148° (SSE) 09:48:38 145.825
BRITE-PL 03 Mar 09:42:41 09:47:13 58° 286° (WNW) 09:51:25 437.365/2234.400
GOMX 1 03 Mar 09:44:14 09:48:40 84° 284° (WNW) 09:52:51 467.674
UKube-1 03 Mar 09:45:00 09:46:18 11° 88° (E) 09:47:51 .
ANTELSAT 03 Mar 09:45:12 09:48:54 28° 69° (ENE) 09:52:37 437.575/2403.000
CUTE 1.7 + AOD 2 03 Mar 09:45:59 09:50:15 85° 284° (WNW) 09:54:31 437.475
O/OREOS (USA 219) 03 Mar 09:51:05 09:55:38 77° 111° (ESE) 10:00:15 437.305
DELFI C3 03 Mar 09:56:30 10:00:01 27° 95° (E) 10:03:34 145.870
UWE-3 03 Mar 09:57:16 10:00:26 21° 93° (E) 10:03:43 435.000/436.395/437.385
POLYITAN 1 03 Mar 09:58:46 10:02:03 22° 67° (ENE) 10:05:24 437.675
POPSAT HIP 1 03 Mar 09:58:59 10:02:14 22° 67° (ENE) 10:05:34 437.405
RS-15 03 Mar 10:03:39 10:14:32 50° 248° (WSW) 10:25:42 29.354- 29.394
SO-50 03 Mar 10:05:24 10:09:59 37° 47° (NE) 10:14:35 436.795
GONETS M04 03 Mar 10:15:34 10:24:11 63° 267° (W) 10:32:47
DOVE 4 03 Mar 10:16:10 10:20:22 54° 287° (WNW) 10:24:24 437.250
CINEMA 3 03 Mar 10:19:14 10:23:27 85° 102° (ESE) 10:27:36 145.822/145.860
NANOSAT C BR1 03 Mar 10:21:08 10:25:04 36° 71° (ENE) 10:29:01 145.865
Oscar 11 03 Mar 10:24:31 10:28:52 74° 101° (ESE) 10:33:11 145.826/435.025
AAUSAT CUBESAT 2 03 Mar 10:27:36 10:31:38 47° 287° (WNW) 10:35:40 437.432
COMPASS 1 03 Mar 10:30:49 10:34:45 38° 288° (WNW) 10:38:38 437.405
CUBEBUG 2 03 Mar 10:35:28 10:39:38 71° 102° (ESE) 10:43:47 437.445
HO-68 03 Mar 10:40:21 10:47:11 47° 294° (WNW) 10:53:56 435.675
UNISAT 6 03 Mar 10:42:19 10:46:44 72° 258° (WSW) 10:51:04 437.425
DX 1 03 Mar 10:49:57 10:54:18 63° 101° (E) 10:58:37 434.975-435.025
QB50P1 03 Mar 10:53:44 10:58:01 85° 78° (ENE) 11:02:20 145.935-145.965
AISAT 03 Mar 10:56:37 11:00:32 31° 96° (E) 11:04:29 437.250
QB50P2 03 Mar 10:57:50 11:02:07 86° 257° (WSW) 11:06:26 145.880/145.840
CUBEBUG 1 03 Mar 10:59:01 11:01:16 14° 89° (E) 11:03:43 437.445
SEEDS 03 Mar 11:00:08 11:02:57 17° 294° (WNW) 11:05:39 437.485
50 SAT 03 Mar 11:00:14 11:03:46 31° 96° (E) 11:07:20 437.505
BUGSAT 1 03 Mar 11:00:31 11:04:47 75° 75° (ENE) 11:09:04 437.445
CANX-2 03 Mar 11:05:18 11:07:12 12° 296° (WNW) 11:08:53 2200.000
VELOX 1 03 Mar 11:05:40 11:09:47 37° 97° (E) 11:13:55 145.980
TIGRISAT 03 Mar 11:07:26 11:11:35 39° 262° (W) 11:15:39 435.000
HUMSAT D 03 Mar 11:10:02 11:14:07 60° 100° (E) 11:18:12 437.325/437.525
FUNcube-1 03 Mar 11:10:44 11:14:53 69° 285° (WNW) 11:19:01 145.935
ZACube-1 03 Mar 11:12:16 11:16:23 65° 285° (WNW) 11:20:31 437.345
DUCHIFAT 1 03 Mar 11:12:23 11:16:38 61° 259° (W) 11:20:53 145.980
UKube-1 03 Mar 11:18:40 11:23:01 67° 286° (WNW) 11:27:18 .
ISS 03 Mar 11:19:30 11:22:08 22° 344° (NNW) 11:24:46 145.825
ANTELSAT 03 Mar 11:21:54 11:25:41 27° 265° (W) 11:29:23 437.575/2403.000
ESTCUBE 1 03 Mar 11:23:55 11:27:53 29° 95° (E) 11:31:53 437.505/2401.250
DANDE 03 Mar 11:28:00 11:30:36 44° 77° (ENE) 11:33:07 436.750
DELFI C3 03 Mar 11:31:47 11:35:09 25° 291° (WNW) 11:38:27 145.870
O/OREOS (USA 219) 03 Mar 11:33:16 11:35:44 14° 311° (NW) 11:38:02 437.305
UWE-3 03 Mar 11:33:24 11:37:06 31° 290° (WNW) 11:40:46 435.000/436.395/437.385
POLYITAN 1 03 Mar 11:33:52 11:37:49 34° 263° (W) 11:41:44 437.675
POPSAT HIP 1 03 Mar 11:34:00 11:37:57 35° 263° (W) 11:41:54 437.405
SO-50 03 Mar 11:46:06 11:50:30 32° 245° (WSW) 11:54:49 436.795
CUSAT 1 03 Mar 11:53:35 11:56:03 36° 263° (W) 11:58:31 437.405
NANOSAT C BR1 03 Mar 11:57:50 12:01:04 20° 267° (W) 12:04:13 145.865
Oscar 11 03 Mar 12:02:54 12:04:32 12° 297° (WNW) 12:05:57 145.826/435.025
Oscar 19 03 Mar 12:08:38 12:12:09 20° 63° (ENE) 12:15:49 437.125/150
CUBEBUG 2 03 Mar 12:14:37 12:15:51 11° 297° (WNW) 12:16:53 437.445
GONETS M04 03 Mar 12:17:17 12:19:27 11° 286° (WNW) 12:20:51
DX 1 03 Mar 12:27:48 12:30:06 14° 297° (WNW) 12:32:14 434.975-435.025
AISAT 03 Mar 12:33:21 12:37:05 26° 292° (WNW) 12:40:42 437.250
CUBEBUG 1 03 Mar 12:33:44 12:38:04 55° 287° (WNW) 12:42:21 437.445
50 SAT 03 Mar 12:35:38 12:38:38 20° 292° (WNW) 12:41:32 437.505
VELOX 1 03 Mar 12:42:43 12:46:11 22° 294° (WNW) 12:49:33 145.980
HUMSAT D 03 Mar 12:47:37 12:49:29 13° 296° (WNW) 12:51:11 437.325/437.525
ISS 03 Mar 12:57:12 12:59:23 17° 4° (N) 13:01:35 145.825
ESTCUBE 1 03 Mar 13:00:47 13:04:44 28° 292° (WNW) 13:08:35 437.505/2401.250
SPROUT 03 Mar 13:02:49 13:07:08 80° 102° (ESE) 13:11:24 437.525
TISAT 1 03 Mar 13:04:00 13:08:16 74° 103° (ESE) 13:12:26 437.305
SWISSCUBE 03 Mar 13:04:32 13:06:37 13° 88° (E) 13:08:57 437.505
BEESAT 03 Mar 13:12:38 13:15:10 15° 89° (E) 13:17:56 436.000
Gurwin Techsat 1B 03 Mar 13:24:04 13:28:17 25° 65° (ENE) 13:32:38 435.225
AO-7 03 Mar 13:33:02 13:37:06 15° 46° (NE) 13:41:33 29.400- 29.500
ITUPSAT 1 03 Mar 13:39:23 13:43:26 27° 94° (E) 13:47:32 437.325
Oscar 19 03 Mar 13:46:05 13:51:08 57° 259° (W) 13:56:12 437.125/150
ITAMSAT 1 03 Mar 13:46:08 13:51:10 51° 71° (ENE) 13:56:16 435.822/435.867
HORYU 2 03 Mar 14:13:48 14:16:37 17° 65° (ENE) 14:19:36 437.375
ISS 03 Mar 14:33:31 14:36:30 33° 23° (NNE) 14:39:30 145.825
SWISSCUBE 03 Mar 14:40:16 14:45:05 70° 285° (WNW) 14:49:51 437.505
SPROUT 03 Mar 14:41:35 14:42:40 11° 298° (WNW) 14:43:31 437.525
TISAT 1 03 Mar 14:42:08 14:43:32 11° 298° (WNW) 14:44:43 437.305
KKS-1 03 Mar 14:46:40 14:50:18 25° 94° (E) 14:54:00 437.445
BEESAT 03 Mar 14:48:46 14:53:32 62° 286° (WNW) 14:58:16 436.000
STARS 03 Mar 14:51:31 14:54:29 18° 92° (E) 14:57:36 437.465
Gurwin Techsat 1B 03 Mar 15:02:59 15:08:03 45° 262° (W) 15:13:09 435.225
YUBILEINY 03 Mar 15:14:29 15:20:32 22° 81° (E) 15:27:00 435.215
ITUPSAT 1 03 Mar 15:17:01 15:21:24 34° 291° (WNW) 15:25:43 437.325
AO-7 03 Mar 15:20:16 15:28:24 61° 66° (ENE) 15:36:35 29.400- 29.500
ITAMSAT 1 03 Mar 15:27:07 15:31:02 20° 269° (W) 15:34:49 435.822/435.867
HORYU 2 03 Mar 15:48:39 15:52:58 49° 260° (W) 15:57:17 437.375
JAS-2 03 Mar 16:01:34 16:06:59 59° 71° (ENE) 16:13:06 435.910
ISS 03 Mar 16:09:56 16:12:57 36° 221° (SW) 16:15:57 145.825
KKS-1 03 Mar 16:23:03 16:27:00 31° 291° (WNW) 16:30:53 437.445
STARS 03 Mar 16:27:03 16:31:13 42° 289° (WNW) 16:35:19 437.465
BEESAT 3 03 Mar 16:36:39 16:38:59 15° 111° (ESE) 16:41:30 437.485
M-CUBED/EXP-1 PRIME 03 Mar 16:50:09 16:53:58 31° 102° (ESE) 16:58:03 437.505
AUBIESAT-1 03 Mar 16:51:22 16:55:06 28° 101° (ESE) 16:59:05 437.475
BEESAT 2 03 Mar 17:02:10 17:05:29 24° 114° (ESE) 17:08:55 435.950
YUBILEINY 03 Mar 17:07:44 17:16:30 78° 280° (W) 17:25:21 435.215
AIST 2 03 Mar 17:07:48 17:08:32 10° 109° (ESE) 17:09:31 435.215
AO-7 03 Mar 17:14:27 17:21:43 31° 266° (W) 17:28:49 29.400- 29.500
Cubesat XI-IV 03 Mar 17:20:41 17:25:24 33° 67° (ENE) 17:30:12 437.490
VERMONT LUNAR 03 Mar 17:24:29 17:27:09 21° 154° (SSE) 17:29:50 437.305
CUTE-I 03 Mar 17:29:08 17:34:03 38° 68° (ENE) 17:39:01 437.470
PHONESAT 2.4 03 Mar 17:36:07 17:38:08 14° 150° (SSE) 17:40:15 2401.200-2431.200
MOZHAYETS 4 03 Mar 17:40:44 17:45:24 90° 283° (WNW) 17:50:03
JAS-2 03 Mar 17:48:46 17:52:50 20° 273° (W) 17:56:58 435.910
CUBESAT XI-V 03 Mar 18:07:09 18:09:28 14° 88° (E) 18:12:00 437.345
BEESAT 3 03 Mar 18:12:40 18:16:42 53° 307° (NW) 18:20:46 437.485
AIST 1 03 Mar 18:17:24 18:21:34 40° 76° (ENE) 18:25:43
O/OREOS (USA 219) 03 Mar 18:22:00 18:25:18 19° 53° (NE) 18:28:41 437.305
PRISM 03 Mar 18:25:04 18:28:04 19° 92° (E) 18:31:10 437.425
M-CUBED/EXP-1 PRIME 03 Mar 18:25:10 18:28:49 28° 295° (WNW) 18:32:38 437.505
AUBIESAT-1 03 Mar 18:26:10 18:29:56 30° 295° (WNW) 18:33:51 437.475
STRAND 1 03 Mar 18:36:53 18:40:12 18° 90° (E) 18:43:41 437.568
BEESAT 2 03 Mar 18:39:43 18:43:32 35° 311° (NW) 18:47:23 435.950
AIST 2 03 Mar 18:42:19 18:46:35 80° 304° (WNW) 18:50:55 435.215
Cubesat XI-IV 03 Mar 19:00:36 19:05:29 34° 264° (W) 19:10:20 437.490
VERMONT LUNAR 03 Mar 19:01:16 19:04:41 52° 170° (S) 19:08:05 437.305
CUTE-I 03 Mar 19:09:34 19:14:14 29° 266° (W) 19:18:50 437.470
YUBILEINY 03 Mar 19:09:37 19:15:10 17° 304° (WNW) 19:20:16 435.215
PHONESAT 2.4 03 Mar 19:12:38 19:16:06 42° 165° (SSE) 19:19:34 2401.200-2431.200
BRITE-PL 03 Mar 19:16:01 19:20:13 23° 66° (ENE) 19:24:24 437.365/2234.400
GOMX 1 03 Mar 19:16:47 19:19:40 15° 64° (ENE) 19:22:41 467.674
MOZHAYETS 4 03 Mar 19:20:47 19:22:00 11° 299° (WNW) 19:22:58
HO-68 03 Mar 19:22:43 19:28:37 30° 61° (ENE) 19:34:40 435.675
CUBESAT XI-V 03 Mar 19:42:45 19:47:27 63° 286° (WNW) 19:52:05 437.345
DOVE 4 03 Mar 19:45:48 19:49:14 19° 66° (ENE) 19:52:43 437.250
AAUSAT CUBESAT 2 03 Mar 19:46:24 19:47:57 12° 64° (ENE) 19:49:41 437.432
COMPASS 1 03 Mar 19:49:04 19:51:21 15° 65° (ENE) 19:53:48 437.405
AIST 1 03 Mar 19:55:55 19:58:57 18° 273° (W) 20:01:50
PRISM 03 Mar 19:59:48 20:03:44 37° 289° (WNW) 20:07:38 437.425
O/OREOS (USA 219) 03 Mar 20:00:36 20:05:04 49° 252° (WSW) 20:09:27 437.305
STRAND 1 03 Mar 20:14:48 20:19:52 58° 288° (WNW) 20:24:53 437.568
SEEDS 03 Mar 20:16:27 20:20:12 34° 71° (ENE) 20:24:02 437.485
CANX-2 03 Mar 20:21:09 20:25:14 51° 73° (ENE) 20:29:21 2200.000
AIST 2 03 Mar 20:23:48 20:25:57 13° 324° (NW) 20:27:59 435.215
FUNcube-1 03 Mar 20:35:01 20:35:34 10° 63° (ENE) 20:36:21 145.935
ZACube-1 03 Mar 20:36:10 20:37:13 11° 63° (ENE) 20:38:30 437.345
VERMONT LUNAR 03 Mar 20:39:00 20:42:26 57° 187° (S) 20:45:51 437.305
CUTE 1.7 + AOD 2 03 Mar 20:39:27 20:43:38 75° 76° (ENE) 20:47:52 437.475
UKube-1 03 Mar 20:41:06 20:42:47 12° 62° (ENE) 20:44:41 .
DELFI C3 03 Mar 20:45:52 20:48:46 20° 67° (ENE) 20:51:47 145.870
PHONESAT 2.4 03 Mar 20:50:46 20:54:22 63° 182° (S) 20:57:59 2401.200-2431.200
GOMX 1 03 Mar 20:51:56 20:57:20 76° 259° (W) 21:02:27 467.674
BRITE-PL 03 Mar 20:52:53 20:58:25 54° 261° (W) 21:03:43 437.365/2234.400
UWE-3 03 Mar 20:55:30 20:58:48 22° 68° (ENE) 21:02:08 435.000/436.395/437.385
PCSat 03 Mar 21:03:05 21:08:28 73° 118° (ESE) 21:13:55 145.827
HO-68 03 Mar 21:08:58 21:15:59 58° 259° (WSW) 21:23:03 435.675
AAUSAT CUBESAT 2 03 Mar 21:19:02 21:23:08 64° 259° (WSW) 21:27:17 437.432
Oscar 11 03 Mar 21:19:52 21:24:06 61° 75° (ENE) 21:28:22 145.826/435.025
CINEMA 3 03 Mar 21:21:11 21:25:58 85° 77° (ENE) 21:30:33 145.822/145.860
DOVE 4 03 Mar 21:21:39 21:26:42 55° 260° (W) 21:31:30 437.250
GONETS M04 03 Mar 21:21:56 21:29:13 33° 85° (E) 21:36:42
COMPASS 1 03 Mar 21:22:40 21:26:42 50° 261° (W) 21:30:47 437.405
CUBEBUG 2 03 Mar 21:34:12 21:38:40 66° 75° (ENE) 21:43:01 437.445
DX 1 03 Mar 21:46:05 21:50:24 60° 73° (ENE) 21:54:45 434.975-435.025
50 SAT 03 Mar 21:48:07 21:51:10 22° 68° (ENE) 21:54:18 437.505
SEEDS 03 Mar 21:52:59 21:56:09 20° 268° (W) 21:59:15 437.485
AISAT 03 Mar 21:55:19 21:59:16 32° 69° (ENE) 22:03:17 437.250
CUBEBUG 1 03 Mar 21:56:27 21:58:48 15° 63° (ENE) 22:01:19 437.445
CANX-2 03 Mar 21:59:14 22:01:33 14° 271° (W) 22:03:42 2200.000
HUMSAT D 03 Mar 22:02:42 22:06:42 46° 73° (ENE) 22:10:43 437.325/437.525
VELOX 1 03 Mar 22:04:03 22:08:10 37° 70° (ENE) 22:12:21 145.980
FUNcube-1 03 Mar 22:07:01 22:11:23 82° 257° (WSW) 22:15:41 145.935
ZACube-1 03 Mar 22:08:43 22:13:06 78° 257° (WSW) 22:17:24 437.345
UKube-1 03 Mar 22:14:05 22:18:27 72° 258° (WSW) 22:22:49 .
VERMONT LUNAR 03 Mar 22:17:05 22:20:01 25° 203° (SSW) 22:22:56 437.305
RS-15 03 Mar 22:18:13 22:26:30 27° 105° (ESE) 22:35:16 29.354- 29.394
DELFI C3 03 Mar 22:20:06 22:23:47 34° 263° (W) 22:27:29 145.870
ESTCUBE 1 03 Mar 22:24:26 22:28:21 30° 69° (ENE) 22:32:21 437.505/2401.250
PHONESAT 2.4 03 Mar 22:29:14 22:32:36 36° 198° (SSW) 22:35:58 2401.200-2431.200
UWE-3 03 Mar 22:31:04 22:35:11 36° 263° (W) 22:39:11 435.000/436.395/437.385
UNISAT 6 03 Mar 22:34:16 22:37:30 21° 93° (E) 22:40:52 437.425
QB50P1 03 Mar 22:40:14 22:42:05 13° 89° (E) 22:44:09 145.935-145.965
QB50P2 03 Mar 22:44:08 22:46:27 15° 90° (E) 22:48:56 145.880/145.840
BUGSAT 1 03 Mar 22:45:52 22:45:53 10° 87° (E) 22:46:11 437.445
PCSat 03 Mar 22:48:24 22:52:31 21° 318° (NW) 22:56:32 145.827
DUCHIFAT 1 03 Mar 22:57:32 23:00:36 20° 92° (E) 23:03:45 145.980
TIGRISAT 03 Mar 22:58:14 23:02:11 36° 97° (E) 23:06:13 435.000
Oscar 11 03 Mar 22:58:58 23:00:47 12° 272° (W) 23:02:24 145.826/435.025
DANDE 03 Mar 23:00:37 23:02:01 11° 90° (E) 23:03:46 436.750
ANTELSAT 03 Mar 23:12:21 23:16:35 54° 100° (E) 23:20:52 437.575/2403.000
CUBEBUG 2 03 Mar 23:14:01 23:15:51 12° 272° (W) 23:17:25 437.445
GONETS M04 03 Mar 23:17:11 23:25:41 56° 285° (WNW) 23:34:12
POPSAT HIP 1 03 Mar 23:18:33 23:22:24 34° 97° (E) 23:26:15 437.405
POLYITAN 1 03 Mar 23:18:40 23:22:32 35° 97° (E) 23:26:25 437.675
CUSAT 1 03 Mar 23:20:19 23:24:26 20° 94° (E) 23:28:03 437.405
50 SAT 03 Mar 23:22:33 23:26:04 29° 264° (W) 23:29:32 437.505
DX 1 03 Mar 23:24:57 23:27:08 13° 271° (W) 23:29:05 434.975-435.025
CUBEBUG 1 03 Mar 23:30:19 23:34:44 61° 260° (W) 23:39:09 437.445
AISAT 03 Mar 23:32:07 23:35:55 26° 266° (W) 23:39:40 437.250
HUMSAT D 03 Mar 23:40:17 23:42:48 15° 270° (W) 23:45:09 437.325/437.525
NANOSAT C BR1 03 Mar 23:41:00 23:45:12 62° 101° (E) 23:49:21 145.865
VELOX 1 03 Mar 23:41:24 23:44:54 22° 267° (W) 23:48:19 145.980
TISAT 1 03 Mar 23:56:50 00:01:02 60° 74° (ENE) 00:05:16 437.305
SPROUT 03 Mar 23:57:28 00:01:46 67° 75° (ENE) 00:06:06 437.525
ESTCUBE 1 04 Mar 00:01:20 00:05:14 27° 266° (W) 00:09:06 437.505/2401.250
PHONESAT 2.4 04 Mar 00:09:24 00:10:28 11° 213° (SSW) 00:11:27 2401.200-2431.200
UNISAT 6 04 Mar 00:10:31 00:14:26 35° 290° (WNW) 00:18:23 437.425
SWISSCUBE 04 Mar 00:11:45 00:14:49 18° 63° (ENE) 00:18:03 437.505
QB50P1 04 Mar 00:14:15 00:18:25 55° 286° (WNW) 00:22:32 145.935-145.965
BUGSAT 1 04 Mar 00:17:49 00:21:58 68° 285° (WNW) 00:26:02 437.445
QB50P2 04 Mar 00:18:37 00:22:43 48° 287° (WNW) 00:26:47 145.880/145.840
BEESAT 04 Mar 00:19:51 00:23:09 19° 64° (ENE) 00:26:37 436.000
RS-15 04 Mar 00:26:51 00:37:47 81° 306° (NW) 00:48:56 29.354- 29.394
DUCHIFAT 1 04 Mar 00:32:44 00:36:36 35° 289° (WNW) 00:40:25 145.980
TIGRISAT 04 Mar 00:35:32 00:38:47 21° 293° (WNW) 00:41:56 435.000
DANDE 04 Mar 00:38:31 00:45:17 84° 100° (E) 00:50:18 436.750
ITUPSAT 1 04 Mar 00:46:57 00:51:13 34° 69° (ENE) 00:55:34 437.325
ANTELSAT 04 Mar 00:50:30 00:53:01 15° 295° (WNW) 00:55:24 437.575/2403.000
BEESAT 3 04 Mar 00:54:12 00:56:46 16° 39° (NE) 00:59:25 437.485
POPSAT HIP 1 04 Mar 00:54:52 00:58:08 21° 293° (WNW) 01:01:18 437.405
POLYITAN 1 04 Mar 00:55:03 00:58:17 21° 293° (WNW) 01:01:26 437.675
CUSAT 1 04 Mar 01:01:22 01:07:17 49° 282° (WNW) 01:11:44 437.405
NANOSAT C BR1 04 Mar 01:18:35 01:20:37 13° 297° (WNW) 01:22:29 145.865
BEESAT 2 04 Mar 01:20:48 01:24:06 23° 44° (NE) 01:27:27 435.950
GONETS M04 04 Mar 01:22:47 01:25:09 11° 310° (NW) 01:26:52
YUBILEINY 04 Mar 01:24:20 01:26:16 11° 50° (NE) 01:28:54 435.215
AIST 2 04 Mar 01:26:32 01:28:36 13° 36° (NE) 01:30:47 435.215
TISAT 1 04 Mar 01:35:24 01:37:19 12° 271° (W) 01:39:02 437.305
SPROUT 04 Mar 01:36:53 01:38:25 11° 272° (W) 01:39:41 437.525
KKS-1 04 Mar 01:45:43 01:49:24 26° 68° (ENE) 01:53:09 437.445
SWISSCUBE 04 Mar 01:47:36 01:52:18 56° 260° (W) 01:57:02 437.505
STARS 04 Mar 01:49:34 01:52:38 19° 66° (ENE) 01:55:50 437.465
BEESAT 04 Mar 01:56:03 02:00:41 50° 260° (W) 02:05:21 436.000
Oscar 19 04 Mar 01:56:51 02:01:48 48° 99° (E) 02:06:46 437.125/150
ITAMSAT 1 04 Mar 01:59:27 02:02:43 17° 90° (E) 02:06:11 435.822/435.867
SO-50 04 Mar 02:00:33 02:05:08 74° 121° (ESE) 02:09:54 436.795
ITUPSAT 1 04 Mar 02:25:05 02:29:11 27° 266° (W) 02:33:13 437.325
DANDE 04 Mar 02:25:53 02:28:52 13° 292° (WNW) 02:31:15 436.750
BEESAT 3 04 Mar 02:31:13 02:35:22 70° 239° (WSW) 02:39:25 437.485
RS-15 04 Mar 02:42:47 02:52:14 31° 334° (NNW) 03:01:46 29.354- 29.394
BEESAT 2 04 Mar 02:58:32 03:02:29 42° 242° (WSW) 03:06:21 435.950
AIST 2 04 Mar 03:03:39 03:07:57 83° 56° (NE) 03:12:09 435.215
MOZHAYETS 4 04 Mar 03:10:24 03:11:13 11° 61° (ENE) 03:12:19
YUBILEINY 04 Mar 03:17:07 03:25:46 56° 75° (ENE) 03:34:25 435.215
Gurwin Techsat 1B 04 Mar 03:18:05 03:23:25 70° 101° (ESE) 03:28:44 435.225
KKS-1 04 Mar 03:21:57 03:25:58 31° 264° (W) 03:29:57 437.445
AO-7 04 Mar 03:22:53 03:27:39 17° 87° (E) 03:32:54 29.400- 29.500
STARS 04 Mar 03:24:36 03:28:51 43° 261° (W) 03:33:05 437.465
Oscar 19 04 Mar 03:36:54 03:40:53 23° 295° (WNW) 03:44:44 437.125/150
ITAMSAT 1 04 Mar 03:37:34 03:42:44 61° 287° (WNW) 03:47:50 435.822/435.867
HORYU 2 04 Mar 03:39:30 03:43:22 29° 95° (E) 03:47:17 437.375
M-CUBED/EXP-1 PRIME 04 Mar 03:40:44 03:43:49 37° 67° (ENE) 03:47:04 437.505
AUBIESAT-1 04 Mar 03:41:30 03:44:31 33° 66° (ENE) 03:47:42 437.475
SO-50 04 Mar 03:42:51 03:46:16 19° 322° (NW) 03:49:40 436.795
PCSat 04 Mar 04:08:28 04:11:13 14° 35° (NE) 04:14:08 145.827
MOZHAYETS 4 04 Mar 04:43:15 04:47:49 89° 256° (WSW) 04:52:26
JAS-2 04 Mar 04:53:14 05:00:37 58° 99° (E) 05:08:21 435.910
Gurwin Techsat 1B 04 Mar 04:59:27 05:02:54 17° 298° (WNW) 05:06:08 435.225
RS-15 04 Mar 05:00:55 05:09:22 24° 8° (N) 05:18:09 29.354- 29.394
CUBESAT XI-V 04 Mar 05:11:32 05:14:17 16° 64° (ENE) 05:17:13 437.345
AO-7 04 Mar 05:13:27 05:21:49 85° 107° (ESE) 05:30:07 29.400- 29.500
YUBILEINY 04 Mar 05:14:34 05:22:16 34° 275° (W) 05:29:44 435.215
HORYU 2 04 Mar 05:16:11 05:19:59 28° 292° (WNW) 05:23:44 437.375
PRISM 04 Mar 05:16:52 05:19:28 17° 65° (ENE) 05:22:12 437.425
M-CUBED/EXP-1 PRIME 04 Mar 05:17:38 05:19:06 12° 265° (W) 05:20:26 437.505
AUBIESAT-1 04 Mar 05:17:52 05:19:40 14° 264° (W) 05:21:23 437.475
Cubesat XI-IV 04 Mar 05:39:23 05:40:56 11° 86° (E) 05:42:49 437.490
CUTE-I 04 Mar 05:47:04 05:49:36 14° 87° (E) 05:52:25 437.470
PCSat 04 Mar 05:50:21 05:55:46 67° 57° (ENE) 06:01:10 145.827
STRAND 1 04 Mar 05:53:11 05:57:28 28° 66° (ENE) 06:01:52 437.568
JAS-2 04 Mar 06:38:50 06:45:21 33° 295° (WNW) 06:52:03 435.910
CUBESAT XI-V 04 Mar 06:46:39 06:51:18 60° 260° (W) 06:55:59 437.345
AIST 1 04 Mar 06:48:15 06:51:40 23° 89° (E) 06:55:12
PRISM 04 Mar 06:50:40 06:54:39 45° 261° (W) 06:58:41 437.425
AO-7 04 Mar 07:07:27 07:13:48 24° 307° (NW) 07:19:52 29.400- 29.500
RS-15 04 Mar 07:14:54 07:25:38 46° 40° (NE) 07:36:55 29.354- 29.394
Cubesat XI-IV 04 Mar 07:16:30 07:21:54 89° 299° (WNW) 07:27:17 437.490
CUTE-I 04 Mar 07:25:01 07:30:24 77° 286° (WNW) 07:35:44 437.470
GONETS M04 04 Mar 07:31:14 07:36:13 17° 56° (ENE) 07:41:42
STRAND 1 04 Mar 07:31:47 07:36:33 37° 263° (W) 07:41:20 437.568
PCSat 04 Mar 07:35:05 07:38:42 18° 254° (WSW) 07:42:06 145.827
CUTE 1.7 + AOD 2 04 Mar 08:26:01 08:27:42 12° 88° (E) 08:29:36 437.475
